#timestamp,LO_Frequency,Hit,StdDev 
1522609215.2,286047000.1,N
1522609235.0,286047000.3,N
1522609235.9,286047000.3,N
1522609255.8,286047000.5,N
1522609275.6,286047002.1,N
1522609295.4,286047003.9,N
1522609315.3,286047001.6,N
1522609335.1,286047000.0,N
1522609355.8,286047002.8,N
1522609375.7,286047000.0,N
1522609395.5,286046998.6,N
1522609415.4,286046999.3,N
1522609435.2,286047000.2,N
1522609455.0,286047002.0,N
1522609455.9,286047002.0,N
1522609475.8,286047004.4,N
1522609495.6,286047001.8,N
1522609515.5,286047002.7,N
1522609535.3,286047000.4,N
1522609555.1,286047001.2,N
1522609575.9,286046998.9,N
1522609595.7,286046998.2,N
1522609615.5,286046999.9,N
1522609635.4,286047000.2,N
1522609655.2,286047003.5,N
1522609675.1,286047003.6,N
1522609676.0,286047003.6,N
1522609695.8,286047003.9,N
1522609715.6,286047004.8,N
1522609735.5,286047003.6,N
1522609755.3,286047002.2,N
1522609775.2,286047002.3,N
1522609795.9,286047000.4,N
1522609815.7,286047001.0,N
1522609835.6,286047001.4,N
1522609855.4,286047005.7,Y
1522609875.3,286047003.0,P
1522609895.1,286047005.4,P
1522609896.0,286047005.4,P
1522609915.8,286047005.0,Y
1522609935.7,286047001.5,P
1522609955.5,286047001.5,N
1522609975.4,286047002.4,N
1522609995.2,286047002.1,N
1522610015.0,286047003.8,Y
1522610015.9,286047003.8,P
1522610035.8,286047000.2,N
1522610055.6,286047001.2,N
1522610075.5,286046997.1,N
1522610095.3,286046997.9,N
1522610115.1,286046995.6,N
1522610135.9,286046994.6,N
1522610155.7,286046996.9,N
1522610175.5,286046995.8,N
1522610195.4,286046995.2,N
1522610215.2,286046995.9,N
1522610235.1,286046993.8,N
1522610236.0,286046993.8,N
1522610255.8,286046993.2,N
1522610275.6,286046992.9,N
1522610295.5,286046992.2,N
1522610315.3,286046993.9,N
1522610335.2,286046994.5,N
1522610355.9,286046993.4,N
1522610375.7,286046996.2,N
1522610395.6,286046994.0,N
1522610415.4,286046993.3,N
1522610435.2,286046996.4,N
1522610455.1,286046997.2,N
1522610456.0,286046997.2,N
1522610475.8,286046995.2,N
1522610495.7,286046994.0,N
1522610515.5,286046986.3,Y
1522610535.3,286046995.5,P
1522610555.2,286046995.1,P
1522610575.0,286046995.9,P
1522610575.9,286046995.9,Y
1522610595.8,286047001.2,P
1522610615.6,286046998.9,N
1522610635.4,286046999.2,N
1522610655.3,286046996.7,N
1522610675.1,286046997.0,N
1522610695.8,286046999.4,N
1522610715.7,286046999.1,N
1522610735.5,286046997.0,N
1522610755.4,286046999.3,N
1522610775.2,286046998.6,N
1522610795.0,286046999.4,N
1522610795.9,286046999.4,N
1522610815.8,286047000.8,N
1522610835.6,286047000.4,N
1522610855.5,286047000.5,N
1522610875.3,286046998.3,N
1522610895.1,286046998.7,N
1522610915.9,286046996.7,N
1522610935.7,286046997.1,N
1522610955.5,286046996.9,N
1522610975.4,286046999.2,N
1522610995.2,286046999.2,N
1522611015.1,286046996.9,N
1522611016.0,286046996.9,N
1522611035.8,286046999.5,N
1522611055.6,286046999.1,N
1522611075.5,286047002.6,N
1522611095.3,286046999.9,N
1522611115.2,286047000.3,N
1522611135.9,286047000.9,N
1522611155.7,286047002.2,N
1522611175.6,286047006.5,Y
1522611195.4,286047011.9,P
1522611215.3,286047010.5,N
1522611235.1,286047009.0,N
1522611236.0,286047009.0,N
1522611255.8,286047008.8,N
1522611275.7,286047006.7,N
1522611295.5,286047007.4,N
1522611315.3,286047003.4,N
1522611335.2,286047001.8,N
1522611355.0,286047002.3,N
1522611355.9,286047002.3,N
1522611375.8,286047000.8,N
1522611395.6,286046998.3,N
1522611415.4,286047002.0,N
1522611435.3,286047005.3,N
1522611455.1,286047003.0,N
1522611475.8,286047003.3,N
1522611495.7,286047004.9,N
1522611515.5,286047007.3,N
1522611535.4,286047007.4,N
1522611555.2,286047005.3,N
1522611575.0,286047005.2,N
1522611575.9,286047005.2,N
1522611595.8,286047004.7,N
1522611615.6,286047004.9,N
1522611635.5,286047002.9,N
1522611655.3,286047001.3,N
1522611675.1,286047002.5,N
1522611695.9,286047002.8,N
1522611715.7,286047002.4,N
1522611735.5,286047004.2,N
1522611755.4,286047001.9,N
1522611775.2,286047002.4,N
1522611795.1,286047001.9,N
1522611796.0,286047001.9,N
1522611815.8,286047002.2,N
1522611835.6,286046999.7,N
1522611855.5,286046999.9,N
1522611875.3,286047000.9,N
1522611895.2,286047000.9,N
1522611915.9,286047000.4,N
1522611935.7,286047000.5,N
1522611955.6,286047001.3,N
1522611975.4,286047000.0,N
1522611995.2,286046999.9,N
1522612015.1,286047000.6,N
1522612016.0,286047000.6,N
1522612035.8,286046999.7,N
1522612055.7,286047002.4,N
1522612075.5,286046999.9,N
1522612095.3,286047000.1,N
1522612115.2,286047000.7,N
1522612135.0,286047000.4,N
1522612135.9,286047000.4,N
1522612155.8,286047000.9,N
1522612175.6,286047001.0,N
1522612195.4,286047004.0,Y
1522612215.3,286047000.0,P
1522612235.1,286046999.9,N
1522612255.9,286047000.1,N
1522612275.7,286047000.0,N
1522612295.5,286047000.0,N
1522612315.4,286047000.3,N
1522612335.2,286047000.7,N
1522612355.1,286046998.4,Y
1522612356.0,286046998.4,P
1522612375.8,286046999.4,N
1522612395.6,286046999.1,N
1522612415.5,286046998.4,N
1522612435.3,286046997.1,Y
1522612455.2,286046996.5,P
1522612475.9,286047000.5,N
1522612495.7,286047000.6,N
1522612515.6,286047001.0,N
1522612535.4,286046998.3,N
1522612555.2,286047000.8,N
1522612575.1,286046998.5,N
1522612576.0,286046998.5,N
1522612595.8,286047000.9,N
1522612615.7,286046998.1,N
1522612635.5,286046998.3,N
1522612655.3,286047000.6,N
1522612675.2,286047000.9,N
1522612695.0,286047000.9,N
1522612695.9,286047000.9,N
1522612715.8,286047000.9,N
1522612735.6,286047000.4,N
1522612755.4,286046999.9,N
1522612775.3,286047000.5,N
1522612795.1,286046998.1,N
